Total_Precipitation_Accumulation
0.03 0.04 0.09 0.12 0.13 0.16 0.19 0.25 0.31 0.27 0.25 0.33 0.44 0.64 0.88 1.01 1.21 1.37 1.35 1.37 1.49 1.60 1.85 2.08 2.26 2.46 2.76 3.01 3.19 3.44 3.68 4.06 4.36 4.81 5.17 5.37 5.56 5.74 5.82 5.78 5.74 5.71 5.68 5.84
0.06 0.07 0.07 0.09 0.09 0.11 0.14 0.20 0.28 0.31 0.29 0.32 0.47 0.67 0.91 1.02 1.15 1.35 1.42 1.51 1.55 1.67 1.86 2.22 2.59 3.01 3.26 3.43 3.50 3.75 4.11 4.42 4.61 5.02 5.56 6.07 6.28 6.35 6.36 6.39 6.54 6.56 6.53 6.71
0.08 0.08 0.07 0.07 0.07 0.08 0.12 0.17 0.19 0.28 0.35 0.41 0.60 1.01 1.22 1.22 1.33 1.47 1.49 1.64 1.68 1.77 2.06 2.36 2.84 3.21 3.30 3.42 3.53 3.71 4.29 4.79 5.25 5.70 6.27 6.78 7.12 7.12 6.95 6.62 6.73 6.87 6.66 6.71
0.08 0.07 0.06 0.07 0.07 0.09 0.13 0.14 0.17 0.23 0.38 0.53 0.59 1.25 1.61 1.66 1.68 1.60 1.61 1.74 1.74 1.78 2.03 2.38 2.68 2.98 3.15 3.29 3.58 3.86 4.30 5.00 5.55 5.85 6.48 7.15 7.39 7.61 7.63 7.41 7.12 6.93 6.66 6.50
0.07 0.07 0.08 0.09 0.09 0.09 0.12 0.12 0.18 0.22 0.30 0.49 0.54 1.02 1.78 1.91 2.02 1.84 1.77 1.80 1.69 1.66 1.82 2.20 2.44 2.75 3.16 3.29 3.42 3.63 4.17 4.83 5.59 6.24 6.74 7.33 7.79 8.01 7.94 7.53 7.05 6.52 6.17 5.72
0.07 0.06 0.07 0.08 0.07 0.07 0.11 0.16 0.26 0.32 0.43 0.70 0.65 1.00 1.90 2.20 2.34 2.39 2.05 1.83 1.69 1.62 1.70 1.90 2.20 2.50 2.82 2.90 3.15 3.42 3.87 4.60 5.33 5.95 6.55 7.06 7.45 7.55 7.25 6.72 6.18 5.80 5.40 4.87
0.13 0.10 0.08 0.07 0.09 0.10 0.14 0.30 0.64 0.85 0.95 0.92 0.70 1.05 1.88 2.08 1.92 1.99 2.04 2.09 1.87 1.65 1.71 1.92 2.15 2.47 2.64 2.70 2.94 3.29 3.82 4.49 4.91 5.38 5.89 6.23 6.45 6.57 6.54 6.23 5.77 5.37 4.85 4.38
0.26 0.23 0.11 0.06 0.10 0.15 0.15 0.30 0.79 1.10 1.09 1.08 1.07 1.55 2.21 2.04 1.69 1.69 1.82 1.97 1.79 1.70 1.86 2.17 2.30 2.49 2.66 2.67 2.84 3.19 3.65 4.10 4.32 4.51 4.92 5.27 5.43 5.47 5.34 5.17 4.78 4.47 4.10 3.77
0.30 0.30 0.13 0.08 0.09 0.11 0.20 0.27 0.42 0.62 0.71 1.08 1.57 2.10 2.70 2.52 1.93 1.67 1.73 1.80 1.86 1.83 1.92 2.20 2.36 2.47 2.58 2.61 2.80 2.97 3.22 3.43 3.63 3.80 4.03 4.26 4.32 4.22 4.07 3.89 3.65 3.46 3.26 2.91
0.30 0.30 0.21 0.13 0.13 0.15 0.20 0.31 0.44 0.71 1.06 1.46 1.79 2.52 3.35 3.21 2.49 1.99 1.87 1.84 1.86 1.84 1.89 2.09 2.19 2.31 2.37 2.37 2.48 2.56 2.77 2.92 3.11 3.22 3.27 3.21 3.26 3.18 3.00 2.80 2.70 2.53 2.35 2.25
0.38 0.42 0.29 0.22 0.24 0.27 0.27 0.36 0.54 0.71 0.81 1.41 2.10 3.01 3.20 3.24 2.91 2.48 2.02 1.78 1.77 1.78 1.79 1.84 1.91 1.97 2.00 2.02 2.10 2.24 2.40 2.59 2.70 2.73 2.82 2.76 2.64 2.44 2.32 2.15 2.05 1.99 1.92 1.92
0.39 0.52 0.49 0.33 0.28 0.24 0.27 0.39 0.59 0.93 0.98 1.16 1.83 3.03 3.05 3.27 3.16 2.80 2.37 2.06 1.95 1.87 1.75 1.68 1.65 1.68 1.73 1.79 1.92 2.06 2.09 2.20 2.27 2.35 2.38 2.38 2.33 2.18 2.01 1.88 1.79 1.79 1.80 1.78
0.38 0.63 0.90 0.92 0.78 0.44 0.34 0.35 0.46 0.62 0.90 1.28 1.90 3.03 3.09 3.04 2.98 2.88 2.64 2.32 2.11 1.98 1.77 1.73 1.69 1.64 1.67 1.82 1.87 1.84 1.91 1.99 2.07 2.18 2.13 2.10 2.18 2.08 1.92 1.85 1.86 1.86 1.80 1.77
0.32 0.64 1.08 1.47 1.39 0.82 0.59 0.45 0.46 0.66 1.10 1.32 1.68 2.41 2.70 2.77 2.87 3.03 2.97 2.50 2.08 1.99 1.88 1.90 1.95 1.91 1.80 1.82 1.99 1.96 1.98 2.01 2.05 2.07 2.02 1.87 1.80 1.81 1.84 1.80 1.76 1.71 1.67 1.70
0.41 0.71 0.65 0.61 0.65 0.65 0.61 0.57 0.59 0.70 0.81 1.21 1.64 2.16 2.59 2.75 2.74 2.80 2.66 2.45 2.08 1.98 2.08 2.05 1.98 1.98 1.87 1.83 2.00 2.08 2.02 1.92 2.18 2.24 2.14 1.97 1.78 1.76 1.79 1.76 1.69 1.62 1.57 1.48
0.46 0.71 0.67 0.64 0.54 0.63 0.67 0.69 0.77 0.87 0.94 1.16 1.69 2.42 2.73 2.82 2.78 2.81 2.71 2.54 2.44 2.32 2.24 2.22 2.21 2.19 2.11 1.99 2.05 2.19 2.12 1.99 2.16 2.20 2.24 2.24 2.14 2.10 1.99 1.80 1.70 1.70 1.68 1.62
0.48 0.77 1.02 1.02 0.67 0.90 1.34 1.02 0.97 1.13 1.22 1.47 2.09 2.45 2.38 2.49 2.67 2.88 2.96 2.83 2.71 2.67 2.53 2.51 2.54 2.47 2.45 2.42 2.35 2.35 2.23 2.10 2.13 2.25 2.34 2.30 2.22 2.15 2.08 1.84 1.72 1.77 1.76 1.73
0.52 0.86 1.14 1.22 1.31 2.02 1.84 1.11 1.07 1.29 1.50 1.70 1.97 2.08 2.12 2.16 2.28 2.43 2.58 2.70 2.67 2.59 2.52 2.56 2.70 2.68 2.65 2.55 2.49 2.39 2.30 2.32 2.36 2.37 2.36 2.27 2.12 2.09 2.02 1.93 1.87 1.83 1.76 1.72
0.37 0.78 1.25 1.42 1.79 2.03 1.86 1.21 1.23 1.69 2.25 1.89 1.89 1.78 1.62 1.61 1.89 2.37 2.45 2.46 2.62 2.64 2.60 2.57 2.58 2.58 2.61 2.53 2.45 2.38 2.34 2.35 2.38 2.36 2.22 2.11 2.02 2.03 1.91 1.90 1.85 1.79 1.71 1.64
0.41 0.64 1.24 1.54 2.13 2.51 2.27 1.24 1.03 1.59 2.83 2.16 1.88 1.80 1.67 1.78 2.30 2.50 2.33 2.33 2.31 2.31 2.38 2.30 2.14 2.08 2.27 2.41 2.39 2.29 2.23 2.21 2.18 2.02 1.84 1.73 1.78 1.85 1.70 1.61 1.57 1.56 1.57 1.55
1.01 1.12 1.40 1.70 2.26 2.49 1.51 0.92 1.12 2.41 2.99 2.27 1.89 1.78 1.75 2.02 2.24 1.97 1.79 1.91 1.96 1.94 1.87 1.83 1.78 1.83 1.96 2.03 2.08 2.11 2.03 2.06 1.95 1.78 1.69 1.69 1.64 1.63 1.58 1.56 1.57 1.49 1.42 1.45
1.31 1.49 1.60 1.83 2.43 2.58 1.29 1.09 1.77 2.20 1.80 1.72 1.69 1.63 1.60 1.57 1.45 1.45 1.48 1.48 1.50 1.53 1.52 1.48 1.59 1.69 1.76 1.70 1.66 1.79 1.83 1.82 1.71 1.64 1.58 1.64 1.60 1.47 1.55 1.70 1.64 1.58 1.57 1.54
1.36 1.50 1.66 1.92 2.33 1.99 1.32 1.30 1.45 1.48 1.44 1.34 1.34 1.31 1.26 1.25 1.07 1.14 1.28 1.20 1.17 1.19 1.26 1.33 1.38 1.51 1.65 1.64 1.63 1.67 1.67 1.58 1.57 1.64 1.61 1.53 1.44 1.52 1.59 1.71 1.66 1.57 1.54 1.42
1.39 1.14 1.36 1.61 1.69 1.46 1.28 1.24 1.20 1.10 1.08 1.00 1.07 1.21 1.19 1.16 1.15 1.18 1.19 1.15 1.08 1.12 1.14 1.21 1.27 1.32 1.47 1.47 1.48 1.56 1.50 1.48 1.59 1.69 1.64 1.51 1.40 1.38 1.44 1.50 1.52 1.44 1.36 1.28
1.36 1.33 1.46 1.62 1.57 1.46 1.39 1.16 1.09 1.02 0.94 0.90 0.97 1.07 1.14 1.16 1.18 1.17 1.14 1.14 1.16 1.25 1.26 1.26 1.29 1.28 1.27 1.28 1.32 1.31 1.32 1.43 1.61 1.57 1.43 1.32 1.20 1.17 1.22 1.22 1.21 1.20 1.10 1.05
1.08 1.31 1.55 1.65 1.44 1.47 1.48 1.17 1.02 1.03 0.97 0.97 0.99 1.09 1.21 1.24 1.31 1.25 1.16 1.13 1.15 1.21 1.22 1.28 1.25 1.15 1.16 1.23 1.27 1.19 1.11 1.24 1.49 1.46 1.22 1.06 0.99 0.98 0.91 0.89 0.90 0.89 0.87 0.86